Lexington Weather

Lexington, Massachusetts, USA

70°F
8/17/2022 6:22pm 
  • Lexington Conditions: Overcast
  • Temperature: 70.0°F / 21.1°CColder 0.5°F than last hour.
  • Dew Point: 59.0°FIncreased 0.9°Fsince last hour.
  • Relative Humidity: 68%Increased 3.0% since last hour.
  • Wind: Calm, 10-min avg: Calm, gust: None
  • Barometer: 29.85 inFalling 0.02  inHg/hr Falling Slowly
  • Visibility: 10 miles
  • Rain Today: 0.00 in
  •   

Regional Weather Roundup
for Boston, MA

        
000
ASUS41 KBOX 131510
RWRBOX

REGIONAL WEATHER ROUNDUP
NATIONAL WEATHER SERVICE BOSTON/NORTON MA
1100 AM EDT SAT AUG 13 2022

NOTE:  "FAIR" INDICATES FEW OR NO CLOUDS BELOW 12,000 FEET WITH NO 
SIGNIFICANT WEATHER AND/OR OBSTRUCTIONS TO VISIBILITY.

MAZALL-131600-
EASTERN MASSACHUSETTS
  
CITY           SKY/WX    TMP DP  RH WIND       PRES   REMARKS
BOSTON         MOSUNNY   73  52  47 NE6       30.09S                  
BEVERLY        PTSUNNY   70  53  54 N5        30.09R                  
LAWRENCE       MOSUNNY   73  51  46 VRB7      30.11S                  
BEDFORD        MOSUNNY   73  52  47 N7        30.08S                  
BLUE HILL      NOT AVBL                                               
NORWOOD        SUNNY     75  51  43 N8        30.08F                  
MARSHFIELD     SUNNY     68  55  64 N8G16     30.09S                  
PLYMOUTH       SUNNY     71  56  58 N10       30.08F                  
TAUNTON          N/A    N/A N/A N/A MISG      30.08S                  
NEW BEDFORD    SUNNY     73  55  53 N8        30.07S                  
$$

MAZALL-131600-
CAPE COD AND THE ISLANDS
  
CITY           SKY/WX    TMP DP  RH WIND       PRES   REMARKS
FALMOUTH       SUNNY     68  57  68 N12G21    30.07S                  
HYANNIS        PTSUNNY   68  58  70 N9G20     30.06R                  
CHATHAM        CLOUDY    71  60  68 VRB5      30.06S                  
NANTUCKET      PTSUNNY   72  63  73 N17       30.05R                  
MARTHAS VNYRD  SUNNY     73  61  65 N10       30.06S                  
$$
 
MAZALL-131600-
CENTRAL AND WESTERN MASSACHUSETTS
  
CITY           SKY/WX    TMP DP  RH WIND       PRES   REMARKS
WORCESTER      PTSUNNY   68  49  50 VRB3      30.12R                  
FITCHBURG      PTSUNNY   73  46  38 NE6       30.11S                  
ORANGE         MOSUNNY   69  51  52 NE7       30.13S                  
SPRINGFIELD    MOSUNNY   71  50  46 N9G18     30.08F                  
WESTFIELD      PTSUNNY   73  50  44 N14       30.10F                  
NORTH ADAMS    SUNNY     66  52  60 CALM      30.14F                  
PITTSFIELD     MOSUNNY   69  49  48 N8        30.13F                  
$$
 
RIZALL-131600-
RHODE ISLAND
  
CITY           SKY/WX    TMP DP  RH WIND       PRES   REMARKS
PROVIDENCE     MOSUNNY   75  51  43 NW6       30.09S                  
NEWPORT        SUNNY     71  56  58 N10       30.08R                  
BLOCK ISLAND   SUNNY     70  55  59 N10       30.09S                  
SMITHFIELD     SUNNY     71  51  49 VRB6      30.10S                  
WESTERLY       SUNNY     76  52  43 N9        30.08S                  
$$
 
CTZALL-131600-
CONNECTICUT
  
CITY           SKY/WX    TMP DP  RH WIND       PRES   REMARKS
BRADLEY INTL   MOSUNNY   72  51  47 N12       30.11S                  
HARTFORD       MOSUNNY   74  51  44 N12G17    30.10F                  
BRIDGEPORT     MOSUNNY   75  50  41 MISG      30.09F                  
DANBURY        SUNNY     74  50  42 NE12      30.12F                  
GROTON         SUNNY     78  51  38 N8        30.08S                  
NEW HAVEN      SUNNY     76  52  43 N13G20    30.10S                  
CHESTER        FAIR      73  50  43 NW12      30.10F                  
MERIDEN        SUNNY     74  50  42 NE8       30.10F                  
WILLIMANTIC    MOSUNNY   73  48  41 N12       30.10S                  
OXFORD         MOSUNNY   70  50  49 N12       30.12F                  
$$

MEZ002-015-021-024-NHZ003-005-008-011-012-014-VTZ005-008-131600-
NORTHERN NEW ENGLAND
  
CITY           SKY/WX    TMP DP  RH WIND       PRES   REMARKS
PORTLAND ME    PTSUNNY   73  55  53 E8        30.09S                  
BANGOR ME      MOSUNNY   73  56  54 N7        30.08F                  
CONCORD NH     SUNNY     72  50  45 VRB3      30.10F                  
MANCHESTER NH  MOSUNNY   73  50  44 NE6       30.09S                  
NASHUA NH      MOSUNNY   71  52  50 NE8       30.11S                  
PORTSMOUTH NH  PTSUNNY   71  51  50 N6        30.09S                  
JAFFREY NH     SUNNY     70  48  45 VRB5      30.12F                  
KEENE NH       CLOUDY    69  50  50 VRB3        N/A                   
BURLINGTON VT  MOSUNNY   69  55  60 NW6       30.15S                  
MT. WASHINGTON   N/A     39  39 100 N16         N/A  WCI  30          
$$

NYZ052-076-131600-
EASTERN NEW YORK
  
CITY           SKY/WX    TMP DP  RH WIND       PRES   REMARKS
ALBANY         PTSUNNY   69  53  56 N9        30.15F                  
NEW YORK CITY  MOSUNNY   72  48  42 N10       30.10S                  
$$
 
ANZALL-131600-
MARINE OBSERVATIONS
  
STATION/POSITION TIME  TEMP    WIND        PRES    VSBY  WAVE
                       AIR SEA DIR/SP/G                  HT/PER
                 (UTC) (F)     (DEG/KT/KT) (MB)    (MI)  (FT/S)
BOSTON BUOY      NOT AVBL
BUZZARDS BAY     NOT AVBL
NANTUCKET SOUND  NOT AVBL
MASS BAY-STELLWA NOT AVBL
ISLE OF SHOALS   NOT AVBL
S OF BLOCK IS    NOT AVBL
$$

......................KEY.........................
  SKY/WX - SKY CONDITION/PRESENT WEATHER
  TMP    - TEMPERATURE IN FAHRENHEIT
  DWPT   - DEWPOINT IN FAHRENHEIT
  RH     - RELATIVE HUMIDITY IN PERCENT
  WIND   - DIRECTION AND SPEED IN MPH
  PRES   - MEAN SEA LEVEL PRESSURE IN INCHES OF HG
  WCI    - WIND CHILL INDEX
  VSB    - VISIBILITY IN MILES
  HX     - HEAT INDEX
  TC     - TEMPERATURE IN CELSIUS
  VRB    - VARIABLE WIND DIRECTION
  N/A    - NOT AVAILABLE
  
      

Other recent Regional Weather Roundups

Wed Aug 17, 5:10pm

Wed Aug 17, 4:10pm

Wed Aug 17, 3:10pm

Wed Aug 17, 2:10pm

Wed Aug 17, 1:10pm

Wed Aug 17, 12:10pm

Wed Aug 17, 11:10am

Wed Aug 17, 10:10am

Wed Aug 17, 9:10am

Wed Aug 17, 8:10am

Wed Aug 17, 7:10am

Wed Aug 17, 6:10am

Wed Aug 17, 5:10am

Wed Aug 17, 4:10am

Wed Aug 17, 3:10am

Wed Aug 17, 2:10am

Wed Aug 17, 1:10am

Wed Aug 17, 12:10am

Tue Aug 16, 11:10pm

Tue Aug 16, 10:10pm

Tue Aug 16, 9:10pm

Tue Aug 16, 8:10pm

Tue Aug 16, 7:10pm

Tue Aug 16, 6:10pm

Tue Aug 16, 5:10pm

Tue Aug 16, 4:10pm

Tue Aug 16, 3:10pm

Tue Aug 16, 2:10pm

Tue Aug 16, 1:10pm

Tue Aug 16, 12:10pm

Tue Aug 16, 11:10am

Tue Aug 16, 10:10am

Tue Aug 16, 9:10am

Tue Aug 16, 8:10am

Tue Aug 16, 7:10am

Tue Aug 16, 6:10am

Tue Aug 16, 5:10am

Tue Aug 16, 4:10am

Tue Aug 16, 3:10am

Tue Aug 16, 2:10am

Tue Aug 16, 1:10am

Tue Aug 16, 12:10am

Mon Aug 15, 11:10pm

Mon Aug 15, 10:10pm

Mon Aug 15, 9:10pm

Mon Aug 15, 8:10pm

Mon Aug 15, 7:10pm

Mon Aug 15, 6:10pm

Mon Aug 15, 5:10pm

Mon Aug 15, 4:10pm

Mon Aug 15, 3:10pm

Mon Aug 15, 2:10pm

Mon Aug 15, 1:10pm

Mon Aug 15, 12:10pm

Mon Aug 15, 11:10am

Mon Aug 15, 10:10am

Mon Aug 15, 9:10am

Mon Aug 15, 8:10am

Mon Aug 15, 7:10am

Mon Aug 15, 6:10am

Mon Aug 15, 5:10am

Mon Aug 15, 4:10am

Mon Aug 15, 3:10am

Mon Aug 15, 2:10am

Mon Aug 15, 1:10am

Mon Aug 15, 12:10am

Sun Aug 14, 11:10pm

Sun Aug 14, 10:10pm

Sun Aug 14, 9:10pm

Sun Aug 14, 8:10pm

Sun Aug 14, 7:10pm

Sun Aug 14, 6:10pm

Sun Aug 14, 5:10pm

Sun Aug 14, 4:10pm

Sun Aug 14, 3:10pm

Sun Aug 14, 2:10pm

Sun Aug 14, 1:10pm

Sun Aug 14, 12:10pm

Sun Aug 14, 11:10am

Sun Aug 14, 10:10am

Sun Aug 14, 9:10am

Sun Aug 14, 8:10am

Sun Aug 14, 7:10am

Sun Aug 14, 6:10am

Sun Aug 14, 5:10am

Sun Aug 14, 4:10am

Sun Aug 14, 3:10am

Sun Aug 14, 2:10am

Sun Aug 14, 1:10am

Sun Aug 14, 12:10am

Sat Aug 13, 11:10pm

Sat Aug 13, 10:10pm

Sat Aug 13, 9:10pm

Sat Aug 13, 8:10pm

Sat Aug 13, 7:10pm

Sat Aug 13, 6:10pm

Sat Aug 13, 5:10pm

Sat Aug 13, 4:10pm

Sat Aug 13, 3:10pm

Sat Aug 13, 2:10pm

Sat Aug 13, 1:10pm

Sat Aug 13, 12:10pm

Sat Aug 13, 10:10am

Sat Aug 13, 9:10am

Sat Aug 13, 8:10am

Sat Aug 13, 7:10am

Sat Aug 13, 6:10am

Sat Aug 13, 5:10am

Sat Aug 13, 4:10am

Sat Aug 13, 3:10am

Sat Aug 13, 2:10am

Sat Aug 13, 1:10am

Sat Aug 13, 12:10am

Fri Aug 12, 11:10pm

Fri Aug 12, 10:10pm

Fri Aug 12, 9:10pm

Fri Aug 12, 8:10pm

Fri Aug 12, 7:10pm

Fri Aug 12, 6:10pm

Fri Aug 12, 5:10pm

Fri Aug 12, 4:10pm

Fri Aug 12, 3:10pm

Fri Aug 12, 2:10pm

Fri Aug 12, 1:10pm

Fri Aug 12, 12:10pm

Fri Aug 12, 11:10am

Fri Aug 12, 10:10am

Fri Aug 12, 9:10am

Fri Aug 12, 8:10am

Fri Aug 12, 7:10am

Fri Aug 12, 6:10am

Fri Aug 12, 5:10am

Fri Aug 12, 4:10am

Fri Aug 12, 3:10am

Fri Aug 12, 2:10am

Fri Aug 12, 1:10am

Fri Aug 12, 12:10am

Thu Aug 11, 11:10pm

Thu Aug 11, 10:10pm

Thu Aug 11, 9:10pm

Thu Aug 11, 8:10pm

Thu Aug 11, 7:10pm

Thu Aug 11, 6:10pm

Thu Aug 11, 5:10pm

Thu Aug 11, 4:10pm

Thu Aug 11, 3:10pm

Thu Aug 11, 2:10pm

Thu Aug 11, 1:10pm

Thu Aug 11, 12:10pm

Thu Aug 11, 11:10am

Thu Aug 11, 10:10am

Thu Aug 11, 9:10am

Thu Aug 11, 8:10am

Thu Aug 11, 7:10am

Thu Aug 11, 6:10am

Thu Aug 11, 5:10am

Thu Aug 11, 4:10am

Thu Aug 11, 3:10am

Thu Aug 11, 2:10am

Thu Aug 11, 1:10am

Thu Aug 11, 12:10am

Wed Aug 10, 11:10pm

Wed Aug 10, 10:10pm

Wed Aug 10, 9:10pm

Wed Aug 10, 8:10pm

Wed Aug 10, 7:10pm

Wed Aug 10, 6:10pm

Meta data:

ID: f37ab069-182b-439b-bb62-9e89c3bd5de9
Link: https://api.weather.gov/products/f37ab069-182b-439b-bb62-9e89c3bd5de9